CAPE
0 0 0 0 0 0 0 0 0 0 0 29 14 0 98 56 60 141 316 507 625 710 1238 1188 1163 1215 1121 1235 1544 1698 1381 1163 806 411 154 0 0 0 0 0 0 0 0 0
0 0 0 0 0 0 0 0 0 0 0 2 34 0 69 0 111 94 336 589 715 1046 1266 1447 1537 1596 1659 1651 1865 1837 1687 1268 728 248 0 0 0 0 0 0 0 0 0 0
0 0 0 0 0 0 0 0 0 0 0 0 0 0 0 0 47 214 257 631 958 1001 1117 1538 1596 1656 1797 2023 2068 1938 1440 774 328 46 0 0 0 0 0 0 0 0 0 0
0 0 0 0 0 0 0 0 0 0 0 0 0 0 0 0 0 150 379 494 755 1185 1477 1722 1659 1651 1669 2083 2121 1944 1228 601 230 15 0 0 0 0 0 0 0 0 0 0
0 0 0 0 0 0 0 0 0 0 0 0 0 0 0 0 0 0 263 557 729 1124 1459 1588 1733 1668 1382 1174 1358 1378 835 360 151 10 0 0 0 0 0 0 0 0 0 0
0 0 0 0 0 0 0 0 0 0 0 0 0 0 0 0 0 0 258 588 621 1118 1435 1683 1733 1374 679 17 81 309 235 525 276 9 0 0 0 0 0 0 0 0 0 0
0 0 0 0 0 0 0 0 0 0 0 0 0 0 0 0 0 0 189 494 734 917 1209 1581 1564 925 153 63 27 0 0 1 289 32 0 0 0 0 0 0 0 0 0 0
0 0 0 0 0 0 0 0 0 0 0 0 0 0 0 0 0 0 0 2 0 90 896 1386 1246 851 188 87 1 0 0 0 35 18 0 0 0 0 0 0 0 0 0 0
0 0 0 0 0 0 0 0 0 0 0 0 0 0 0 0 0 0 2 80 13 0 285 1070 949 609 466 171 30 0 0 0 5 48 0 0 0 0 0 0 0 0 0 0
0 0 0 0 0 0 0 0 0 0 0 0 0 0 0 0 0 0 1 36 97 155 404 680 661 644 501 154 52 4 0 0 0 0 0 0 0 0 0 0 0 0 0 0
0 0 0 0 0 0 0 0 0 0 0 0 0 0 0 0 0 0 0 16 103 317 445 582 565 707 602 231 3 0 0 0 0 0 0 0 0 0 0 0 0 0 0 0
0 0 0 0 0 0 0 0 0 0 0 0 0 0 0 0 0 0 0 0 193 333 506 627 492 593 850 449 15 0 0 0 0 0 0 0 0 0 0 0 0 0 0 0
0 0 0 0 0 0 0 0 0 0 0 0 0 0 0 0 0 0 0 0 42 367 429 390 386 487 614 369 36 0 0 0 0 0 0 0 0 0 0 0 0 0 0 0
0 0 0 0 0 0 0 0 0 0 0 0 0 0 0 0 0 0 0 0 0 79 383 491 382 348 341 301 39 0 0 0 0 0 0 0 0 0 0 0 0 0 0 0
0 0 0 0 0 0 0 0 0 0 0 0 0 0 0 0 0 0 0 0 0 0 0 66 228 418 281 254 0 0 0 0 0 0 0 0 0 0 0 0 0 0 0 0
0 0 0 0 0 0 0 0 0 0 0 0 0 0 0 0 0 0 0 0 0 0 0 0 3 239 198 132 0 0 0 0 0 0 0 0 0 0 0 0 0 0 0 0
0 0 0 0 0 0 0 0 0 0 0 0 0 0 0 0 0 0 0 0 0 0 0 0 0 0 83 3 0 0 0 0 0 0 0 0 0 0 0 0 0 0 0 0
0 0 0 0 0 0 0 0 0 0 0 0 0 0 0 0 0 0 0 0 0 0 0 0 0 0 11 0 0 0 0 0 0 0 0 0 0 0 0 0 0 0 0 0
0 0 0 0 0 0 0 0 0 0 0 0 0 0 0 0 0 0 0 0 0 0 0 0 0 0 0 0 0 0 0 0 0 1 2 0 0 0 0 0 0 0 0 0
0 0 0 0 0 0 0 0 0 0 0 0 0 0 0 0 0 0 0 0 0 0 0 0 0 0 0 0 1 1 0 0 1 3 1 0 0 0 0 0 0 0 0 0
0 0 0 0 0 0 0 0 0 0 0 0 0 0 0 0 0 0 0 0 0 0 0 0 0 0 0 1 2 1 2 2 3 1 0 0 0 0 0 0 0 0 0 0
0 0 0 0 0 0 0 0 0 0 0 0 0 0 0 0 0 0 0 0 0 0 0 0 0 0 1 2 3 1 2 1 1 0 0 0 0 0 0 0 0 0 0 0
0 0 0 0 0 0 0 14 0 0 0 0 0 0 0 0 0 0 0 0 0 0 0 0 2 1 1 3 3 1 2 0 0 0 0 0 0 0 0 0 0 0 0 0
0 0 0 0 0 0 0 1 11 12 18 14 15 20 12 7 7 2 0 0 0 0 0 2 3 3 2 3 2 1 1 0 0 0 0 0 0 0 0 0 0 0 0 0
6 0 3 9 5 18 21 0 0 0 0 0 0 0 0 0 0 1 2 0 0 0 2 3 3 4 4 3 0 0 0 0 0 0 0 0 0 0 0 0 0 0 0 0
0 0 4 14 0 0 0 0 0 0 0 0 0 0 0 0 0 0 0 0 0 0 1 3 3 3 2 2 0 0 0 0 0 0 0 0 0 0 0 0 0 0 0 0
CIN
-0 -0 -0 -0 -0 -0 -0 -0 -0 -0 -0 -94 -65 -0 -60 -187 -220 -196 -202 -248 -238 -249 -233 -282 -293 -303 -282 -274 -241 -216 -247 -265 -312 -377 -419 -0 -0 -0 -0 -0 -0 -0 -0 -0
-0 -0 -0 -0 -0 -0 -0 -0 -0 -0 -0 -11 -84 -0 -105 -0 -195 -189 -179 -213 -216 -221 -252 -277 -304 -297 -265 -244 -199 -178 -175 -222 -303 -401 -0 -0 -0 -0 -0 -0 -0 -0 -0 -0
-0 -0 -0 -0 -0 -0 -0 -0 -0 -0 -0 -0 -0 -0 -0 -0 -202 -243 -241 -210 -231 -216 -214 -247 -281 -267 -229 -199 -165 -149 -183 -288 -365 -455 -0 -0 -0 -0 -0 -0 -0 -0 -0 -0
-0 -0 -0 -0 -0 -0 -0 -0 -0 -0 -0 -0 -0 -0 -0 -0 -0 -208 -195 -230 -237 -275 -237 -224 -259 -268 -250 -169 -130 -122 -181 -267 -349 -527 -0 -0 -0 -0 -0 -0 -0 -0 -0 -0
-0 -0 -0 -0 -0 -0 -0 -0 -0 -0 -0 -0 -0 -0 -0 -0 -0 -0 -126 -159 -212 -264 -268 -246 -240 -261 -226 -209 -152 -100 -130 -241 -344 -446 -0 -0 -0 -0 -0 -0 -0 -0 -0 -0
-0 -0 -0 -0 -0 -0 -0 -0 -0 -0 -0 -0 -0 -0 -0 -0 -0 -0 -62 -91 -139 -241 -266 -230 -223 -207 -302 -335 -442 -196 -77 -133 -272 -455 -0 -0 -0 -0 -0 -0 -0 -0 -0 -0
-0 -0 -0 -0 -0 -0 -0 -0 -0 -0 -0 -0 -0 -0 -0 -0 -0 -0 -49 -55 -101 -193 -284 -279 -253 -309 -530 -524 -373 -45 -0 -62 -282 -329 -0 -0 -0 -0 -0 -0 -0 -0 -0 -0
-0 -0 -0 -0 -0 -0 -0 -0 -0 -0 -0 -0 -0 -0 -0 -0 -0 -0 -0 -55 -0 -194 -275 -315 -360 -382 -583 -535 -77 -1 -0 -0 -425 -353 -0 -0 -0 -0 -0 -0 -0 -0 -0 -0
-0 -0 -0 -0 -0 -0 -0 -0 -0 -0 -0 -0 -0 -0 -0 -0 -0 -0 -22 -89 -150 -0 -313 -374 -442 -517 -511 -584 -565 -0 -0 -0 -411 -367 -0 -0 -0 -0 -0 -0 -0 -0 -0 -0
-0 -0 -0 -0 -0 -0 -0 -0 -0 -0 -0 -0 -0 -0 -0 -0 -0 -0 -4 -68 -95 -226 -359 -467 -541 -523 -504 -514 -595 -685 -0 -0 -0 -0 -0 -0 -0 -0 -0 -0 -0 -0 -0 -0
-0 -0 -0 -0 -0 -0 -0 -0 -0 -0 -0 -0 -0 -0 -0 -0 -0 -0 -0 -67 -73 -150 -310 -438 -515 -459 -415 -486 -145 -0 -0 -0 -0 -0 -0 -0 -0 -0 -0 -0 -0 -0 -0 -0
-0 -0 -0 -0 -0 -0 -0 -0 -0 -0 -0 -0 -0 -0 -0 -0 -0 -0 -0 -0 -84 -126 -229 -390 -508 -489 -400 -474 -160 -0 -0 -0 -0 -0 -0 -0 -0 -0 -0 -0 -0 -0 -0 -0
-0 -0 -0 -0 -0 -0 -0 -0 -0 -0 -0 -0 -0 -0 -0 -0 -0 -0 -0 -0 -101 -157 -231 -350 -474 -492 -446 -484 -570 -0 -0 -0 -0 -0 -0 -0 -0 -0 -0 -0 -0 -0 -0 -0
-0 -0 -0 -0 -0 -0 -0 -0 -0 -0 -0 -0 -0 -0 -0 -0 -0 -0 -0 -0 -0 -72 -161 -227 -344 -425 -511 -519 -629 -0 -0 -0 -0 -0 -0 -0 -0 -0 -0 -0 -0 -0 -0 -0
-0 -0 -0 -0 -0 -0 -0 -0 -0 -0 -0 -0 -0 -0 -0 -0 -0 -0 -0 -0 -0 -0 -0 -183 -182 -274 -451 -526 -45 -0 -0 -0 -0 -0 -0 -0 -0 -0 -0 -0 -0 -0 -0 -0
-0 -0 -0 -0 -0 -0 -0 -0 -0 -0 -0 -0 -0 -0 -0 -0 -0 -0 -0 -0 -0 -0 -0 -0 -129 -252 -352 -520 -0 -0 -0 -0 -0 -0 -0 -0 -0 -0 -0 -0 -0 -0 -0 -0
-0 -0 -0 -0 -0 -0 -0 -0 -0 -0 -0 -0 -0 -0 -0 -0 -0 -0 -0 -0 -0 -0 -0 -0 -0 -0 -459 -222 -0 -0 -0 -0 -0 -0 -0 -0 -0 -0 -0 -0 -0 -0 -0 -0
-0 -0 -0 -0 -0 -0 -0 -0 -0 -0 -0 -0 -0 -0 -0 -0 -0 -0 -0 -0 -0 -0 -0 -0 -0 -0 -488 -0 -0 -0 -0 -0 -0 -0 -0 -0 -0 -0 -0 -0 -0 -0 -0 -0
-0 -0 -0 -0 -0 -0 -0 -0 -0 -0 -0 -0 -0 -0 -0 -0 -0 -0 -0 -0 -0 -0 -0 -0 -0 -0 -0 -0 -0 -1 -0 -0 -0 -0 -0 -0 -0 -0 -0 -0 -0 -0 -0 -0
-0 -0 -0 -0 -0 -0 -0 -0 -0 -0 -0 -0 -0 -0 -0 -0 -0 -0 -0 -0 -0 -0 -0 -0 -0 -0 -0 -0 -0 -0 -0 -0 -0 -0 -0 -0 -0 -0 -0 -0 -0 -0 -0 -0
-0 -0 -0 -0 -0 -0 -0 -0 -0 -0 -0 -0 -0 -0 -0 -0 -0 -0 -0 -0 -0 -0 -0 -0 -0 -0 -0 -0 -0 -0 -0 -0 -0 -0 -0 -0 -0 -0 -0 -0 -0 -0 -0 -0
-0 -0 -0 -0 -0 -0 -0 -0 -0 -0 -0 -0 -0 -0 -0 -0 -0 -0 -0 -0 -0 -0 -0 -0 -0 -0 -0 -0 -0 -0 -0 -0 -0 -0 -0 -0 -0 -0 -0 -0 -0 -0 -0 -0
-0 -0 -0 -0 -0 -0 -0 -83 -0 -0 -0 -0 -0 -0 -0 -0 -0 -0 -0 -0 -0 -0 -0 -0 -0 -0 -0 -0 -0 -0 -0 -0 -0 -0 -0 -0 -0 -0 -0 -0 -0 -0 -0 -0
-0 -0 -0 -0 -0 -0 -0 -34 -169 -167 -131 -156 -164 -166 -162 -133 -149 -167 -0 -0 -0 -0 -0 -0 -0 -0 -0 -0 -0 -0 -0 -0 -0 -0 -0 -0 -0 -0 -0 -0 -0 -0 -0 -0
-11 -13 -43 -31 -65 -67 -85 -57 -0 -0 -0 -0 -0 -0 -0 -0 -0 -111 -180 -0 -0 -0 -0 -0 -0 -0 -0 -0 -0 -0 -0 -0 -0 -0 -0 -0 -0 -0 -0 -0 -0 -0 -0 -0
-0 -3 -4 -3 -0 -0 -0 -0 -0 -0 -0 -0 -0 -0 -0 -0 -0 -7 -0 -0 -0 -0 -0 -0 -0 -0 -0 -0 -0 -0 -0 -0 -0 -0 -0 -0 -0 -0 -0 -0 -0 -0 -0 -0
Wind_Speed
15 14 17 17 15 12 4 2 9 3 4 7 16 16 5 1 4 5 7 2 1 2 1 2 2 1 1 1 3 4 6 6 5 5 7 10 11 12 14 15 15 16 17 19
16 21 16 12 14 12 8 4 0 8 9 4 1 22 7 3 6 10 7 5 4 3 2 1 1 1 3 2 3 3 6 6 4 5 6 8 9 11 12 13 14 15 16 18
15 15 12 13 14 12 12 5 8 10 11 7 15 18 12 4 5 5 14 7 6 6 7 5 3 2 1 3 4 3 4 4 2 4 7 9 11 11 11 11 12 14 16 18
19 15 14 10 15 10 17 5 12 8 8 15 6 18 12 8 3 11 10 10 9 9 10 9 7 6 5 3 1 1 2 2 4 5 5 6 7 8 8 9 10 13 15 17
18 14 12 18 20 10 20 12 11 13 13 16 11 18 15 15 5 8 12 12 13 13 13 12 10 8 5 6 6 7 7 7 5 3 4 4 6 7 8 9 10 12 14 16
18 15 18 18 15 14 11 14 16 17 16 20 15 17 18 15 12 5 8 10 14 13 14 11 11 8 8 9 8 9 12 14 6 1 1 3 5 7 8 8 8 10 13 15
21 22 20 17 19 16 12 13 18 20 19 24 20 20 18 16 14 16 15 11 11 11 12 12 12 11 10 8 5 3 17 8 5 2 4 3 5 7 6 6 7 9 12 15
20 23 16 13 15 17 12 15 17 20 21 24 19 20 21 18 15 17 20 24 21 14 11 10 12 13 12 11 9 6 6 1 5 5 6 5 7 7 5 5 7 9 12 15
19 21 17 14 14 14 15 17 17 21 22 24 22 22 23 15 15 16 18 21 21 16 9 6 6 11 15 16 13 6 4 5 7 6 7 6 7 6 6 5 7 10 13 15
19 24 20 16 14 16 15 10 19 19 24 25 22 22 20 16 16 12 17 19 21 17 10 5 3 8 12 13 11 6 2 4 7 8 7 7 7 6 5 4 7 9 12 14
15 20 19 18 18 19 18 20 19 20 23 26 28 25 17 14 12 16 17 18 18 14 10 6 1 4 10 11 9 6 4 7 6 6 7 6 6 5 3 4 6 9 12 15
14 18 23 24 21 21 22 24 20 24 25 25 27 27 17 14 15 14 17 17 14 11 10 7 4 2 7 10 9 5 5 4 4 4 4 5 4 3 2 4 7 9 12 15
12 21 25 23 21 19 23 22 21 23 24 24 27 27 18 18 18 18 20 18 17 15 12 10 7 4 6 8 8 7 6 5 4 4 3 2 2 2 2 4 7 9 12 15
13 20 23 28 25 20 23 24 23 22 27 26 24 33 25 23 24 25 24 20 18 17 15 13 10 8 8 10 10 9 8 6 6 4 4 3 3 2 1 4 7 9 11 15
22 28 24 27 28 28 29 27 24 27 31 29 30 25 25 28 28 25 21 21 21 21 18 14 14 12 11 11 11 11 11 9 7 6 4 4 3 2 5 4 6 8 10 15
24 32 29 34 30 31 36 33 28 26 27 31 34 34 27 29 28 28 28 28 26 26 25 21 17 15 14 14 14 13 13 11 9 7 6 4 3 4 4 5 6 9 12 15
31 30 29 38 31 34 39 33 33 33 31 31 32 35 29 30 29 30 31 31 32 31 28 25 21 19 18 15 15 14 13 12 10 9 7 6 5 5 3 4 8 10 11 15
31 31 33 39 31 44 35 29 31 33 35 33 36 34 33 32 30 29 28 28 30 29 28 27 23 18 14 10 11 12 12 13 12 11 9 7 5 4 2 5 6 9 12 13
28 30 35 37 37 40 35 27 25 30 35 30 33 33 34 31 29 30 27 28 30 29 28 26 23 18 12 9 7 8 10 13 12 11 10 8 5 3 2 2 6 9 11 12
31 31 35 34 39 45 36 29 26 28 44 32 32 35 31 25 33 33 27 27 25 24 21 20 18 15 12 8 5 6 8 11 12 10 9 8 6 3 1 3 7 9 11 11
29 32 38 39 43 42 32 28 21 34 42 28 29 31 28 29 31 28 27 26 24 23 21 19 17 15 12 9 6 6 6 8 8 8 7 6 5 3 1 4 7 9 10 10
35 34 35 34 39 46 26 27 31 30 28 26 25 25 27 29 31 30 29 26 23 21 20 19 19 16 12 7 4 4 4 4 5 6 6 6 5 1 2 5 7 8 9 9
46 38 39 34 36 28 24 23 23 25 28 28 29 29 29 31 31 31 30 28 25 22 21 20 18 14 11 6 3 2 3 2 3 4 6 7 3 1 3 5 6 8 9 9
32 30 36 34 33 30 29 29 29 29 30 29 29 30 30 33 32 32 29 26 23 21 20 18 14 12 9 4 2 2 0 1 2 4 5 3 1 2 4 5 6 7 7 9
32 33 32 34 31 29 26 25 26 29 30 31 31 30 31 30 31 30 29 26 22 20 17 13 11 8 4 1 2 2 5 5 6 4 5 7 4 2 3 5 6 6 7 8
36 35 35 35 31 36 38 35 35 36 36 35 34 33 33 32 33 30 27 23 19 16 14 12 9 5 2 2 2 0 3 7 8 9 8 7 2 1 3 4 4 5 7 7
Wind_Direction
294 285 276 281 294 293 316 45 153 88 23 157 186 196 170 66 153 169 165 204 244 179 1 104 97 79 91 112 137 131 126 104 78 57 37 24 23 26 21 23 28 31 32 29
287 275 285 295 291 292 297 328 158 326 333 148 288 212 211 212 200 195 195 219 261 277 268 260 117 66 135 129 130 134 130 124 97 53 46 42 51 34 33 33 35 35 34 30
283 292 292 279 286 287 289 284 305 317 328 327 323 278 203 315 213 259 193 241 248 219 212 206 198 186 99 139 135 135 131 128 58 34 45 52 44 43 40 43 42 38 34 30
285 284 291 282 283 283 280 248 294 310 323 316 318 316 327 337 322 193 197 213 221 212 207 207 209 206 216 261 30 71 106 25 47 81 64 66 39 36 49 57 52 41 34 25
288 286 275 286 283 275 286 285 276 295 303 313 314 313 321 328 314 205 207 215 212 215 208 215 217 219 262 289 304 315 324 335 2 26 84 64 41 51 72 70 60 43 32 24
283 296 290 290 297 295 298 290 290 297 301 297 304 304 309 316 316 273 238 236 218 219 218 231 224 242 264 291 299 321 329 342 334 12 57 91 80 94 92 80 59 45 32 24
285 281 286 290 290 298 288 285 285 286 289 295 308 304 304 318 311 313 309 294 280 258 242 243 241 243 250 249 278 169 325 316 143 175 173 134 113 118 106 81 51 33 22 16
286 281 283 293 289 292 282 284 286 291 294 298 308 308 315 320 317 315 314 308 309 297 278 255 237 232 229 213 208 263 351 291 154 153 165 138 131 122 94 77 48 26 15 13
292 292 295 288 298 296 292 285 295 296 303 301 306 311 312 325 322 322 324 323 321 323 305 276 241 225 215 212 209 282 347 148 152 149 150 130 133 123 112 81 37 22 15 13
291 288 296 295 298 302 298 306 291 297 294 296 305 309 314 324 328 331 329 329 325 328 333 323 240 217 205 209 212 256 306 162 146 142 140 138 136 127 110 61 31 20 17 11
296 287 291 292 291 287 293 292 294 297 294 294 298 304 315 319 332 331 331 331 330 339 347 349 340 189 183 188 208 206 212 173 155 142 140 138 132 125 92 46 21 17 13 9
301 298 288 286 291 289 289 289 291 288 293 295 296 298 314 319 324 330 330 330 332 339 346 345 330 270 197 199 205 219 200 200 187 157 147 137 120 111 81 18 5 8 9 4
299 294 289 294 293 291 288 288 288 290 293 289 292 299 309 311 313 316 318 315 315 318 327 329 318 280 235 220 224 232 227 216 205 182 173 155 141 110 28 10 2 5 5 1
291 291 288 283 290 300 292 290 286 280 282 290 290 291 301 303 305 305 309 308 310 312 314 313 307 284 256 229 231 232 226 218 210 206 201 202 180 153 12 2 354 360 1 358
285 283 285 286 287 287 287 288 288 280 282 283 293 295 301 301 302 305 309 310 309 311 312 304 291 281 268 248 239 234 227 221 211 215 227 234 203 167 311 358 360 2 3 0
284 281 285 282 284 284 281 282 283 284 287 287 288 290 298 300 301 301 302 305 305 306 306 301 295 288 268 250 241 237 232 226 217 226 226 218 220 283 304 352 359 359 355 357
281 280 280 279 284 284 279 277 278 281 283 286 286 292 299 299 300 300 302 305 306 308 310 308 300 290 280 269 252 242 237 224 225 225 225 230 217 263 301 349 357 356 357 357
281 279 278 279 283 274 284 289 285 282 283 284 286 291 294 298 300 302 305 308 309 311 312 314 317 314 305 282 257 242 232 231 228 229 233 231 236 265 318 342 358 354 355 360
273 278 278 275 275 279 284 288 288 288 286 289 289 292 296 298 299 300 307 311 311 310 311 314 318 318 314 297 267 243 237 229 229 233 233 222 227 240 301 343 357 353 358 3
268 271 271 276 276 277 287 287 288 293 282 291 292 293 296 298 296 301 312 316 319 321 322 322 325 325 320 312 278 251 244 226 227 224 219 208 208 222 248 342 356 360 2 6
273 268 265 270 274 280 287 292 295 281 290 302 298 296 295 295 300 309 312 313 318 321 322 326 327 325 322 312 284 268 244 229 217 206 204 208 204 203 305 355 358 1 8 19
268 271 271 272 274 276 289 289 281 294 300 303 306 307 303 303 304 308 311 313 317 319 323 325 327 324 323 318 294 278 254 228 210 204 197 199 186 220 355 352 2 16 31 35
266 267 272 271 276 287 294 294 298 299 300 302 302 304 305 304 306 308 308 310 311 313 317 321 323 322 324 324 300 269 275 206 197 224 194 189 183 67 352 1 22 40 47 43
275 277 272 274 275 278 283 290 296 297 299 303 305 303 305 303 305 305 307 309 310 314 317 320 322 322 320 323 339 317 257 166 160 159 211 179 209 338 350 32 72 67 55 47
277 281 277 275 280 282 285 290 296 299 302 302 304 306 305 305 305 307 307 308 309 312 316 317 317 316 317 346 52 94 124 127 143 171 184 246 269 328 18 78 88 78 59 52
273 276 276 275 282 283 281 285 291 292 293 296 298 298 300 302 303 306 309 310 312 312 314 313 310 299 276 196 143 157 156 142 157 158 164 241 262 68 90 100 69 39 36 62